OneWeb SL0572

operational
NORAD ID: 55151 Int'l Des: 2023-004 Owner: ONEWEBN Country: UK Constellation: oneweb
LEOCIRCULARPOLARONEWEB_TYPE

OneWeb SL0572について

説明を読み込み中...

リアルタイム位置

3D地球を読み込み中...

次回通過

高度履歴

Altitude vs Time

uPlot chart will show altitude changes over time

軌道要素

1 55151U 23004M 25304.79959896 .00000046 00000-0 85181-4 0 9999
2 55151 87.9130 51.2814 0001885 96.4058 263.7289 13.17649560137406
Epoch: Oct 31, 2025 • Age: 23 hours

現在のステータス

高度 1195.4 km
速度 7.26 km/s
衛星直下点 13.68°N, 79.2°W
打ち上げ日 Jan 10, 2023
運用期間 2.8 years
タイプ internet

技術仕様

分類 Payload
質量 148.00 kg
乾燥質量 140.00 kg
総質量 148.00 kg
長さ 1.30 m
直径 1.00 m
スパン 5.00 m
形状 Trapezoid+2 pan
製造者 ONEWUS
バスタイプ ARROW
フェーズステータス In Orbit
所有者/国 ONEWEBN/UK

大規模コンステレーション

Loading constellations...